Date String (YYYY-MM-DD hh:mm:ss) UTC,Instrument flags,Ambient pressure (hPa),Sample flow (lpm),Bypass flow (lpm),Sample temperature (°C),Ambient temperature (°C),ASC tube jacket temperature (°C),LED temperature (°C),Box temperature (°C),Sample RH (%),Span deviation,Mass concentration (μg/m³),Mass concentration (μg/m³),Mass concentration (μg/m³)
DateTimeUTC,F1_M11,P_M11,Q1_M11,Q2_M11,T1_M11,T2_M11,T3_M11,T4_M11,T5_M11,U1_M11,ZSPAN_M11,X0_M11,X2_M11,X1_M11
2022-10-15 21:00:00,,0829.1,5.01,0.00,30.1,27.1,00.0,38.8,31.9,14.1,0000.0,0009.16,0004.68,0004.05
2022-10-15 21:01:00,,0829.0,4.99,0.00,30.0,27.3,00.0,38.8,31.7,14.2,0000.0,0009.49,0004.77,0004.07
2022-10-15 21:02:00,,0829.0,4.99,0.00,30.0,27.7,00.0,38.8,31.7,14.3,0000.0,0009.55,0004.80,0004.08
2022-10-15 21:03:00,,0829.1,5.00,0.00,30.0,27.9,00.0,38.8,31.8,14.3,0000.0,0009.27,0004.73,0004.07
2022-10-15 21:04:00,,0829.1,5.00,0.00,30.0,28.2,00.0,38.8,31.8,14.2,0000.0,0009.45,0004.73,0004.09
2022-10-15 21:05:00,,0829.0,5.01,0.00,30.0,28.3,00.0,38.8,31.8,14.2,0000.0,0009.58,0004.73,0004.10
2022-10-15 21:06:00,,0829.0,4.99,0.00,30.0,28.5,00.0,38.8,31.8,14.3,0000.0,0009.80,0004.72,0004.10
2022-10-15 21:07:00,,0829.0,4.99,0.00,30.0,28.6,00.0,38.8,31.9,14.3,0000.0,0010.49,0004.74,0004.10
2022-10-15 21:08:00,,0829.0,4.99,0.00,30.0,28.7,00.0,38.8,31.9,14.3,0000.0,0011.01,0004.73,0004.08
2022-10-15 21:09:00,,0829.1,5.00,0.00,30.0,28.8,00.0,38.8,31.9,14.3,0000.0,0011.24,0004.71,0004.07
2022-10-15 21:10:00,,0829.1,5.02,0.00,30.0,28.9,00.0,38.8,31.9,14.2,0000.0,0011.24,0004.70,0004.07
2022-10-15 21:11:00,,0829.1,5.00,0.00,30.1,28.9,00.0,38.8,31.9,14.4,0000.0,0012.22,0004.65,0004.06
2022-10-15 21:12:00,,0829.1,4.99,0.00,30.1,29.0,00.0,38.9,32.0,14.4,0000.0,0012.16,0004.60,0004.06
2022-10-15 21:13:00,,0829.1,4.99,0.00,30.1,29.0,00.0,38.9,32.0,14.5,0000.0,0012.01,0004.61,0004.06
2022-10-15 21:14:00,,0829.1,5.00,0.00,30.2,29.1,00.0,38.9,32.1,14.4,0000.0,0011.64,0004.61,0004.05
2022-10-15 21:15:00,,0829.1,5.01,0.00,30.2,29.1,00.0,38.9,32.1,14.2,0000.0,0011.20,0004.57,0004.04
2022-10-15 21:16:00,,0829.1,5.01,0.00,30.2,29.2,00.0,38.9,32.1,14.3,0000.0,0010.96,0004.57,0004.03
2022-10-15 21:17:00,,0829.0,5.00,0.00,30.2,29.2,00.0,38.9,32.1,14.3,0000.0,0010.66,0004.58,0004.03
2022-10-15 21:18:00,,0829.1,4.98,0.00,30.2,28.3,00.0,38.9,32.1,14.2,0000.0,0010.67,0004.58,0004.04
2022-10-15 21:19:00,,0829.1,5.02,0.00,30.2,27.1,00.0,38.9,32.0,14.2,0000.0,0010.57,0004.59,0004.05
2022-10-15 21:20:00,,0829.0,4.99,0.00,30.1,26.9,00.0,38.8,31.9,14.1,0000.0,0010.38,0004.60,0004.06
2022-10-15 21:21:00,,0829.1,4.99,0.00,30.0,27.1,00.0,38.8,31.7,14.2,0000.0,0010.56,0004.61,0004.06
2022-10-15 21:22:00,,0829.1,5.00,0.00,30.0,27.4,00.0,38.8,31.7,14.3,0000.0,0009.63,0004.63,0004.07
2022-10-15 21:23:00,,0829.0,5.01,0.00,30.0,27.7,00.0,38.8,31.7,14.4,0000.0,0009.39,0004.62,0004.07
2022-10-15 21:24:00,,0829.0,5.01,0.00,30.0,28.0,00.0,38.8,31.7,14.5,0000.0,0009.88,0004.62,0004.09
2022-10-15 21:25:00,,0829.1,5.00,0.00,30.0,28.2,00.0,38.8,31.7,14.5,0000.0,0010.47,0004.65,0004.12
2022-10-15 21:26:00,,0829.1,4.99,0.00,30.0,28.4,00.0,38.8,31.8,14.5,0000.0,0011.19,0004.70,0004.13
2022-10-15 21:27:00,,0829.0,5.01,0.00,30.0,28.5,00.0,38.8,31.8,14.6,0000.0,0011.16,0004.70,0004.13
2022-10-15 21:28:00,,0829.1,5.00,0.00,30.0,28.6,00.0,38.8,31.9,14.6,0000.0,0010.91,0004.70,0004.14
2022-10-15 21:29:00,,0829.1,4.99,0.00,30.0,28.7,00.0,38.8,31.9,14.6,0000.0,0010.53,0004.76,0004.15
2022-10-15 21:30:00,,0829.1,4.99,0.00,30.0,28.8,00.0,38.8,31.9,14.6,0000.0,0010.70,0004.74,0004.15
2022-10-15 21:31:00,,0829.2,5.00,0.00,30.0,28.9,00.0,38.8,31.9,14.6,0000.0,0010.94,0004.75,0004.14
2022-10-15 21:32:00,,0829.2,5.01,0.00,30.0,28.9,00.0,38.8,32.0,14.5,0000.0,0010.89,0004.76,0004.16
2022-10-15 21:33:00,,0829.1,5.00,0.00,30.1,29.0,00.0,38.8,32.0,14.4,0000.0,0011.03,0004.80,0004.18
2022-10-15 21:34:00,,0829.0,5.00,0.00,30.1,29.0,00.0,38.8,32.0,14.5,0000.0,0011.67,0004.86,0004.20
2022-10-15 21:35:00,,0829.0,4.99,0.00,30.1,29.1,00.0,38.9,32.0,14.4,0000.0,0011.51,0004.87,0004.22
2022-10-15 21:36:00,,0829.1,4.99,0.00,30.1,29.1,00.0,38.9,32.0,14.5,0000.0,0011.25,0004.90,0004.23
2022-10-15 21:37:00,,0829.1,5.02,0.00,30.2,29.1,00.0,38.9,32.1,14.5,0000.0,0011.20,0004.94,0004.24
2022-10-15 21:38:00,,0829.1,5.00,0.00,30.2,27.9,00.0,38.9,32.0,14.4,0000.0,0011.95,0004.99,0004.27
2022-10-15 21:39:00,,0829.1,5.00,0.00,30.1,27.0,00.0,38.8,31.9,14.4,0000.0,0012.10,0005.00,0004.28
2022-10-15 21:40:00,,0829.2,5.01,0.00,30.1,27.0,00.0,38.8,31.8,14.5,0000.0,0012.60,0004.98,0004.29
2022-10-15 21:41:00,,0829.2,5.00,0.00,30.0,27.3,00.0,38.8,31.7,14.6,0000.0,0012.42,0004.99,0004.32
2022-10-15 21:42:00,,0829.2,5.00,0.00,30.0,27.6,00.0,38.8,31.7,14.7,0000.0,0012.59,0005.05,0004.35
2022-10-15 21:43:00,,0829.2,4.99,0.00,29.9,27.8,00.0,38.8,31.7,14.8,0000.0,0012.57,0005.08,0004.36
2022-10-15 21:44:00,,0829.2,5.00,0.00,29.9,28.1,00.0,38.8,31.7,14.8,0000.0,0013.32,0005.11,0004.36
2022-10-15 21:45:00,,0829.2,5.01,0.00,29.9,28.3,00.0,38.7,31.7,14.7,0000.0,0013.11,0005.05,0004.35
2022-10-15 21:46:00,,0829.2,4.99,0.00,29.9,28.5,00.0,38.7,31.8,14.7,0000.0,0012.91,0005.07,0004.34
2022-10-15 21:47:00,,0829.3,4.99,0.00,30.0,28.6,00.0,38.8,31.8,14.8,0000.0,0012.65,0005.07,0004.33
2022-10-15 21:48:00,,0829.3,5.02,0.00,30.0,28.7,00.0,38.8,31.9,14.6,0000.0,0012.48,0005.04,0004.33
2022-10-15 21:49:00,,0829.3,5.00,0.00,30.0,28.8,00.0,38.8,31.9,14.6,0000.0,0011.65,0005.05,0004.34
2022-10-15 21:50:00,,0829.3,4.99,0.00,30.0,28.9,00.0,38.8,31.9,14.6,0000.0,0012.21,0005.08,0004.36
2022-10-15 21:51:00,,0829.2,4.99,0.00,30.0,28.9,00.0,38.8,32.0,14.6,0000.0,0011.89,0005.06,0004.37
2022-10-15 21:52:00,,0829.2,5.01,0.00,30.1,29.0,00.0,38.8,32.0,14.7,0000.0,0011.70,0005.10,0004.38
2022-10-15 21:53:00,,0829.2,5.01,0.00,30.1,29.0,00.0,38.8,32.0,14.6,0000.0,0011.40,0005.08,0004.38
2022-10-15 21:54:00,,0829.2,5.00,0.00,30.1,29.1,00.0,38.8,32.0,14.6,0000.0,0011.42,0005.06,0004.37
2022-10-15 21:55:00,,0829.2,4.99,0.00,30.1,29.1,00.0,38.9,32.1,14.5,0000.0,0011.10,0005.06,0004.38
2022-10-15 21:56:00,,0829.2,4.99,0.00,30.2,28.8,00.0,38.9,32.0,14.5,0000.0,0010.55,0005.06,0004.41
2022-10-15 21:57:00,,0829.2,5.01,0.00,30.1,27.3,00.0,38.8,31.9,14.5,0000.0,0010.65,0005.09,0004.44
2022-10-15 21:58:00,,0829.3,5.00,0.00,30.1,26.8,00.0,38.8,31.9,14.5,0000.0,0011.44,0005.09,0004.46
2022-10-15 21:59:00,,0829.2,4.99,0.00,30.0,26.9,00.0,38.8,31.7,14.5,0000.0,0012.11,0005.13,0004.48
